Location: Newark
(42.8481°N, 0.4872°E)
Time: 17:23:29
(UTC+00:00)

A-11 Canister half - Pass Details

Date: 02 November 2020
Orbit: 1525 x 1683 km, 47.3° (Epoch: 22 November)

Event Time Altitude Azimuth Distance (km) Brightness Sun altitude
Rises 18:39:50 0° 295° (WNW) 4,720 12.7 -20.8°
Reaches altitude 10° 18:42:56 10° 293° (WNW) 3,721 12.0 -21.3°
Maximum altitude 18:52:12 70° 212° (SSW) 1,607 9.1 -23.0°
Enters shadow 18:58:08 25° 136° (SE) 2,687 9.9 -24.1°
Drops below altitude 10° 19:01:24 10° 131° (SE) 3,692 - -24.7°
Sets 19:04:27 0° 130° (SE) 4,681 - -25.3°
